IRNSS-1B

Last updated on Sun Jun 21 2026 00:03:06 GMT+0000 (Coordinated Universal Time)

1 39635U 14017A 26170.76140735 .00000109 00000+0 00000+0 0 9996 2 39635 28.9179 240.3593 0023150 189.6008 167.3236 1.00277178 44811
UTC large
Height (km)
Speed (km/s)
/
Latitude / Longitude
Inclination (degrees)
Orbital Period (minutes)
Azimuth
Elevation
Range (km)
Doppler Factor

Next 0 passes for location: London (51.5072 / 0.1276)

No passes found over London.
IRNSS-1B